• în România
  • Lista ţărilor
  • Pe 7 zile
  • Temperatura apei
  • Hartă satelitară
  • Meteo pe hartă
  • Widget-uri
  • user-avatar
    Intrare

    Meteo pe oră la Hobart

    Astăzi, 26 Iulie, Miercuri

    Timp Temperatura Precipitaţii Vânt Presiune Umiditate
    00:00 +7°C° 0,1 mm 2 m/s 737 mmHg 89%
    01:00 +7°C° 0,1 mm 2 m/s 737 mmHg 90%
    02:00 +7°C° 0,8 mm 3 m/s 737 mmHg 91%
    03:00 +7°C° 0,8 mm 3 m/s 737 mmHg 91%
    04:00 +6°C° 0 mm 4 m/s 737 mmHg 93%
    05:00 +6°C° 1,1 mm 4 m/s 738 mmHg 94%
    06:00 +6°C° 1,1 mm 5 m/s 739 mmHg 94%
    07:00 +5°C° 1,1 mm 5 m/s 740 mmHg 95%
    08:00 +5°C° 0,1 mm 5 m/s 741 mmHg 92%
    09:00 +6°C° 0,1 mm 5 m/s 743 mmHg 89%
    10:00 +6°C° 0,1 mm 5 m/s 744 mmHg 86%
    11:00 +6°C° 0,1 mm 5 m/s 744 mmHg 81%
    12:00 +7°C° 0,1 mm 5 m/s 745 mmHg 76%
    13:00 +7°C° 0,1 mm 6 m/s 745 mmHg 71%
    14:00 +7°C° 0,1 mm 5 m/s 746 mmHg 70%
    15:00 +6°C° 0,1 mm 5 m/s 746 mmHg 70%
    16:00 +6°C° 0 mm 4 m/s 746 mmHg 73%
    17:00 +5°C° 0 mm 4 m/s 747 mmHg 79%
    18:00 +4°C° 0 mm 4 m/s 748 mmHg 85%
    19:00 +3°C° 0 mm 4 m/s 749 mmHg 90%
    20:00 +1°C° 0 mm 4 m/s 749 mmHg 91%
    21:00 +1°C° 0 mm 4 m/s 749 mmHg 92%
    22:00 +1°C° 0 mm 3 m/s 750 mmHg 94%
    23:00 +1°C° 0 mm 3 m/s 750 mmHg 94%

    Mâine, 27 Iulie, Joi

    Timp Temperatura Precipitaţii Vânt Presiune Umiditate
    00:00 +1°C° 0 mm 3 m/s 750 mmHg 94%
    01:00 +1°C° 0 mm 3 m/s 751 mmHg 94%
    02:00 +1°C° 0 mm 3 m/s 750 mmHg 94%
    03:00 +1°C° 0 mm 3 m/s 750 mmHg 94%
    04:00 +1°C° 0 mm 3 m/s 750 mmHg 94%
    05:00 +1°C° 0 mm 3 m/s 750 mmHg 93%
    06:00 0°C° 0 mm 3 m/s 750 mmHg 93%
    07:00 +1°C° 0 mm 2 m/s 750 mmHg 93%
    08:00 +3°C° 0 mm 2 m/s 750 mmHg 85%
    09:00 +4°C° 0 mm 3 m/s 750 mmHg 76%
    10:00 +7°C° 0 mm 3 m/s 749 mmHg 67%
    11:00 +8°C° 0 mm 3 m/s 749 mmHg 63%
    12:00 +10°C° 0 mm 4 m/s 748 mmHg 59%
    13:00 +11°C° 0 mm 4 m/s 747 mmHg 54%
    14:00 +11°C° 0 mm 4 m/s 746 mmHg 58%
    15:00 +10°C° 0 mm 4 m/s 745 mmHg 62%
    16:00 +9°C° 0 mm 5 m/s 745 mmHg 65%
    17:00 +8°C° 0 mm 5 m/s 744 mmHg 69%
    18:00 +7°C° 0 mm 5 m/s 744 mmHg 73%
    19:00 +7°C° 0 mm 5 m/s 744 mmHg 77%
    20:00 +7°C° 0,1 mm 5 m/s 743 mmHg 79%
    21:00 +7°C° 0,1 mm 6 m/s 743 mmHg 80%
    22:00 +7°C° 0,1 mm 6 m/s 742 mmHg 82%
    23:00 +7°C° 0,1 mm 6 m/s 742 mmHg 84%

    Poimâine, 28 Iulie, Vineri

    Timp Temperatura Precipitaţii Vânt Presiune Umiditate
    00:00 +7°C° 0,1 mm 5 m/s 742 mmHg 85%
    01:00 +7°C° 0,1 mm 4 m/s 741 mmHg 87%
    02:00 +7°C° 0,2 mm 4 m/s 741 mmHg 88%
    03:00 +6°C° 0,2 mm 4 m/s 741 mmHg 90%
    04:00 +7°C° 0,2 mm 3 m/s 741 mmHg 92%
    05:00 +5°C° 0 mm 3 m/s 741 mmHg 92%
    06:00 +5°C° 0 mm 3 m/s 741 mmHg 92%
    07:00 +5°C° 0 mm 3 m/s 742 mmHg 92%
    08:00 +6°C° 0 mm 4 m/s 742 mmHg 87%
    09:00 +7°C° 0 mm 5 m/s 743 mmHg 83%
    10:00 +9°C° 0 mm 6 m/s 744 mmHg 78%
    11:00 +9°C° 0,1 mm 6 m/s 744 mmHg 78%
    12:00 +8°C° 0,1 mm 6 m/s 744 mmHg 78%
    13:00 +8°C° 0,1 mm 6 m/s 745 mmHg 78%
    14:00 +8°C° 0 mm 6 m/s 745 mmHg 75%
    15:00 +8°C° 0 mm 5 m/s 746 mmHg 71%
    16:00 +8°C° 0 mm 5 m/s 746 mmHg 68%
    17:00 +6°C° 0 mm 4 m/s 747 mmHg 76%
    18:00 +5°C° 0 mm 3 m/s 747 mmHg 83%
    19:00 +3°C° 0 mm 3 m/s 748 mmHg 91%
    20:00 +3°C° 0 mm 2 m/s 748 mmHg 93%
    21:00 +3°C° 0 mm 2 m/s 748 mmHg 94%
    22:00 +3°C° 0 mm 1 m/s 749 mmHg 96%
    23:00 +2°C° 0 mm 2 m/s 748 mmHg 95%

    29 Iulie, Sâmbătă

    Timp Temperatura Precipitaţii Vânt Presiune Umiditate
    00:00 +2°C° 0 mm 2 m/s 747 mmHg 94%
    01:00 +2°C° 0 mm 2 m/s 747 mmHg 93%
    02:00 +1°C° 0 mm 3 m/s 746 mmHg 89%
    03:00 +1°C° 0 mm 3 m/s 746 mmHg 84%
    04:00 0°C° 0 mm 4 m/s 745 mmHg 79%
    05:00 +1°C° 0 mm 4 m/s 744 mmHg 75%
    06:00 +2°C° 0 mm 5 m/s 744 mmHg 71%
    07:00 +2°C° 0 mm 5 m/s 743 mmHg 66%
    08:00 +5°C° 0 mm 6 m/s 742 mmHg 63%
    09:00 +8°C° 0 mm 6 m/s 741 mmHg 59%
    10:00 +11°C° 0 mm 6 m/s 741 mmHg 55%
    11:00 +12°C° 0 mm 7 m/s 740 mmHg 54%
    12:00 +14°C° 0 mm 7 m/s 738 mmHg 53%
    13:00 +16°C° 0 mm 8 m/s 737 mmHg 52%
    14:00 +15°C° 0 mm 8 m/s 737 mmHg 52%
    15:00 +15°C° 0 mm 8 m/s 736 mmHg 52%
    16:00 +15°C° 0 mm 7 m/s 735 mmHg 52%
    17:00 +14°C° 0 mm 7 m/s 735 mmHg 56%
    18:00 +13°C° 0 mm 6 m/s 735 mmHg 59%
    19:00 +12°C° 0 mm 5 m/s 735 mmHg 63%
    20:00 +12°C° 0 mm 5 m/s 735 mmHg 69%
    21:00 +11°C° 0 mm 4 m/s 735 mmHg 74%
    22:00 +11°C° 0 mm 3 m/s 735 mmHg 79%
    23:00 +10°C° 0,2 mm 3 m/s 735 mmHg 82%

    30 Iulie, Duminică

    Timp Temperatura Precipitaţii Vânt Presiune Umiditate
    00:00 +10°C° 0,2 mm 3 m/s 735 mmHg 86%
    01:00 +9°C° 0,2 mm 3 m/s 735 mmHg 89%
    02:00 +9°C° 0,1 mm 3 m/s 735 mmHg 89%
    03:00 +7°C° 0,1 mm 4 m/s 735 mmHg 89%
    04:00 +6°C° 0,1 mm 4 m/s 736 mmHg 89%
    05:00 +6°C° 0 mm 4 m/s 736 mmHg 89%
    06:00 +6°C° 0 mm 4 m/s 737 mmHg 88%
    07:00 +6°C° 0 mm 4 m/s 737 mmHg 87%
    08:00 +7°C° 0 mm 5 m/s 738 mmHg 80%
    09:00 +8°C° 0 mm 5 m/s 738 mmHg 74%
    10:00 +9°C° 0 mm 6 m/s 738 mmHg 68%
    11:00 +10°C° 0 mm 6 m/s 738 mmHg 64%
    12:00 +10°C° 0 mm 6 m/s 738 mmHg 60%
    13:00 +11°C° 0 mm 6 m/s 738 mmHg 56%
    14:00 +10°C° 0 mm 5 m/s 738 mmHg 58%
    15:00 +10°C° 0 mm 5 m/s 739 mmHg 59%
    16:00 +9°C° 0 mm 5 m/s 739 mmHg 61%
    17:00 +8°C° 0 mm 5 m/s 739 mmHg 67%
    18:00 +7°C° 0 mm 5 m/s 740 mmHg 74%
    19:00 +5°C° 0 mm 4 m/s 740 mmHg 81%
    20:00 +5°C° 0 mm 4 m/s 740 mmHg 82%
    21:00 +5°C° 0 mm 4 m/s 741 mmHg 84%
    22:00 +5°C° 0 mm 4 m/s 741 mmHg 86%
    23:00 +5°C° 0 mm 3 m/s 741 mmHg 87%

    31 Iulie, Luni

    Timp Temperatura Precipitaţii Vânt Presiune Umiditate
    00:00 +4°C° 0 mm 3 m/s 741 mmHg 88%
    01:00 +4°C° 0 mm 3 m/s 742 mmHg 90%
    02:00 +4°C° 0 mm 3 m/s 742 mmHg 91%
    03:00 +4°C° 0 mm 3 m/s 742 mmHg 91%
    04:00 +3°C° 0 mm 3 m/s 742 mmHg 92%
    05:00 +3°C° 0 mm 3 m/s 742 mmHg 92%
    06:00 +3°C° 0 mm 3 m/s 743 mmHg 93%
    07:00 +3°C° 0 mm 3 m/s 743 mmHg 93%
    08:00 +4°C° 0 mm 3 m/s 744 mmHg 85%
    09:00 +6°C° 0 mm 4 m/s 744 mmHg 76%
    10:00 +8°C° 0 mm 4 m/s 745 mmHg 68%
    11:00 +8°C° 0 mm 4 m/s 745 mmHg 64%
    12:00 +10°C° 0 mm 4 m/s 744 mmHg 61%
    13:00 +10°C° 0 mm 4 m/s 744 mmHg 58%
    14:00 +10°C° 0,1 mm 4 m/s 745 mmHg 61%
    15:00 +8°C° 0,1 mm 4 m/s 745 mmHg 65%
    16:00 +8°C° 0,1 mm 4 m/s 745 mmHg 69%
    17:00 +7°C° 0,1 mm 3 m/s 746 mmHg 76%
    18:00 +5°C° 0,1 mm 3 m/s 746 mmHg 84%
    19:00 +3°C° 0,1 mm 3 m/s 747 mmHg 92%
    20:00 +3°C° 0 mm 3 m/s 747 mmHg 92%
    21:00 +1°C° 0 mm 4 m/s 748 mmHg 93%
    22:00 +1°C° 0 mm 4 m/s 748 mmHg 93%
    23:00 +1°C° 0 mm 4 m/s 748 mmHg 93%
    Arată mai mult